FW3997 Weather Reports


time (UTC)temp
C
wind
direction
speed
KPH
gust
KPH
rain 1hr
cm
rain 24hr
cm
rain mn
cm
humidity
%
barometer
mb
20260507213509 21 28 12.9 29.0 0.00 0.00 0.00 25 1011.6
20260507213053 20 339 16.1 27.4 0.00 0.00 0.00 25 1011.6
20260507212504 20 346 9.7 30.6 0.00 0.00 0.00 26 1011.7
20260507212008 20 306 17.7 30.6 0.00 0.00 0.00 27 1011.7
20260507211512 20 348 17.7 25.7 0.00 0.00 0.00 27 1011.9
20260507211016 20 292 11.3 32.2 0.00 0.00 0.00 28 1011.9
20260507210509 20 309 19.3 32.2 0.00 0.00 0.00 27 1012.0
20260507210031 20 296 22.5 27.4 0.00 0.00 0.00 28 1012.0
20260507205505 20 301 14.5 27.4 0.00 0.00 0.00 30 1012.0
20260507205006 19 325 19.3 27.4 0.00 0.00 0.00 28 1012.2
20260507204511 20 312 19.3 32.2 0.00 0.00 0.00 27 1012.1
20260507204011 20 321 24.1 32.2 0.00 0.00 0.00 29 1012.2
20260507203507 20 319 12.9 33.8 0.00 0.00 0.00 28 1012.2
20260507203012 19 307 16.1 40.2 0.00 0.00 0.00 30 1012.3
20260507202506 19 336 24.1 40.2 0.00 0.00 0.00 29 1012.2
20260507202006 20 310 12.9 32.2 0.00 0.00 0.00 30 1012.3
20260507201517 20 288 19.3 25.7 0.00 0.00 0.00 31 1012.2
20260507201034 20 301 14.5 24.1 0.00 0.00 0.00 28 1012.2
20260507200508 20 345 9.7 32.2 0.00 0.00 0.00 28 1012.2
20260507200018 20 335 22.5 33.8 0.00 0.00 0.00 27 1012.3
20260507195529 20 325 19.3 33.8 0.00 0.00 0.00 28 1012.2
20260507195005 20 301 14.5 35.4 0.00 0.00 0.00 29 1012.3
20260507194518 19 292 17.7 35.4 0.00 0.00 0.00 31 1012.3
20260507194006 20 319 11.3 22.5 0.00 0.00 0.00 29 1012.3
20260507193506 20 304 12.9 22.5 0.00 0.00 0.00 31 1012.2
20260507193016 19 313 9.7 22.5 0.00 0.00 0.00 29 1012.3
20260507192507 20 331 12.9 25.7 0.00 0.00 0.00 29 1012.2
20260507192007 19 318 16.1 25.7 0.00 0.00 0.00 29 1012.2
20260507191516 18 344 9.7 30.6 0.00 0.00 0.00 29 1012.2
20260507191017 19 348 12.9 30.6 0.00 0.00 0.00 30 1012.2
20260507190508 20 336 20.9 30.6 0.00 0.00 0.00 29 1012.2
20260507190017 20 296 9.7 29.0 0.00 0.00 0.00 29 1012.2
20260507185516 20 286 24.1 30.6 0.00 0.00 0.00 31 1012.3
20260507185010 20 315 19.3 35.4 0.00 0.00 0.00 30 1012.3
20260507184518 19 319 9.7 35.4 0.00 0.00 0.00 30 1012.3
20260507184019 19 317 20.9 35.4 0.00 0.00 0.00 31 1012.3
20260507183508 19 313 8.0 32.2 0.00 0.00 0.00 30 1012.4
20260507183024 19 327 22.5 32.2 0.00 0.00 0.00 30 1012.4
20260507182507 19 313 14.5 25.7 0.00 0.00 0.00 31 1012.4
20260507182009 19 341 14.5 38.6 0.00 0.00 0.00 30 1012.4
20260507181518 19 311 19.3 38.6 0.00 0.00 0.00 33 1012.4
20260507181006 18 306 12.9 32.2 0.00 0.00 0.00 32 1012.3
20260507180504 18 307 20.9 29.0 0.00 0.00 0.00 33 1012.5
20260507180012 18 311 12.9 25.7 0.00 0.00 0.00 33 1012.6
20260507175506 18 303 17.7 27.4 0.00 0.00 0.00 34 1012.5
20260507175009 18 310 12.9 27.4 0.00 0.00 0.00 35 1012.5
20260507174525 18 320 16.1 24.1 0.00 0.00 0.00 35 1012.4
20260507174009 18 321 12.9 24.1 0.00 0.00 0.00 35 1012.5
20260507173508 18 306 9.7 30.6 0.00 0.00 0.00 36 1012.5
20260507173021 17 308 20.9 30.6 0.00 0.00 0.00 35 1012.5
20260507172503 17 337 11.3 17.7 0.00 0.00 0.00 36 1012.4
20260507172002 17 336 11.3 22.5 0.00 0.00 0.00 35 1012.3
20260507171505 17 340 14.5 29.0 0.00 0.00 0.00 35 1012.3
20260507171004 17 339 17.7 29.0 0.00 0.00 0.00 35 1012.3
20260507170504 17 326 14.5 27.4 0.00 0.00 0.00 36 1012.3
20260507170010 17 318 16.1 27.4 0.00 0.00 0.00 37 1012.5
20260507165506 17 324 16.1 27.4 0.00 0.00 0.00 37 1012.6
20260507165010 17 315 16.1 27.4 0.00 0.00 0.00 36 1012.7
20260507164512 17 325 19.3 25.7 0.00 0.00 0.00 36 1012.6
20260507164007 17 327 20.9 25.7 0.00 0.00 0.00 38 1012.7
20260507163507 17 314 16.1 32.2 0.00 0.00 0.00 39 1012.7
20260507163017 17 324 20.9 32.2 0.00 0.00 0.00 39 1012.8
20260507162524 16 312 20.9 32.2 0.00 0.00 0.00 38 1012.9
20260507162010 16 314 19.3 29.0 0.00 0.00 0.00 40 1013.1
20260507161520 16 323 17.7 27.4 0.00 0.00 0.00 43 1013.3
20260507161016 15 330 16.1 32.2 0.00 0.00 0.00 46 1013.3
20260507160503 15 336 19.3 33.8 0.00 0.00 0.00 49 1013.5
20260507160006 15 339 22.5 35.4 0.00 0.00 0.00 50 1013.5
20260507155510 15 338 22.5 35.4 0.00 0.00 0.00 50 1013.4
20260507155006 13 345 16.1 22.5 0.00 0.00 0.00 56 1013.4
20260507154524 12 355 12.9 17.7 0.00 0.00 0.00 62 1013.2
20260507154004 12 355 14.5 17.7 0.00 0.00 0.00 65 1013.1
20260507153505 12 355 14.5 17.7 0.00 0.00 0.00 65 1013.0
20260507153029 11 355 14.5 17.7 0.00 0.00 0.00 66 1013.1
20260507152508 11 355 11.3 19.3 0.00 0.00 0.00 66 1013.0
20260507152009 11 355 14.5 19.3 0.00 0.00 0.00 67 1013.0
20260507151519 11 355 14.5 17.7 0.00 0.00 0.00 69 1013.0
20260507151008 10 355 12.9 17.7 0.00 0.00 0.00 67 1012.9
20260507150525 11 360 14.5 17.7 0.00 0.00 0.00 69 1012.9
20260507150027 11 360 6.4 9.7 0.00 0.00 0.00 61 1013.1
20260507145508 11 360 6.4 9.7 0.00 0.00 0.00 61 1013.1
20260507145007 10 360 6.4 8.0 0.00 0.00 0.00 60 1013.2
20260507144509 10 360 6.4 8.0 0.00 0.00 0.00 62 1013.1
20260507144007 10 360 4.8 9.7 0.00 0.00 0.00 59 1013.2
20260507143507 10 360 6.4 12.9 0.00 0.00 0.00 63 1013.3
20260507143020 10 360 6.4 12.9 0.00 0.00 0.00 64 1013.0
20260507142506 10 360 6.4 12.9 0.00 0.00 0.00 61 1013.0
20260507142009 9 360 1.6 8.0 0.00 0.00 0.00 60 1013.0
20260507141531 9 360 3.2 8.0 0.00 0.00 0.00 65 1013.0
20260507141006 9 360 4.8 9.7 0.00 0.00 0.00 64 1013.0
20260507140507 9 360 6.4 9.7 0.00 0.00 0.00 63 1012.9
20260507140023 9 360 4.8 9.7 0.00 0.00 0.00 62 1012.8
20260507135508 9 360 6.4 9.7 0.00 0.00 0.00 64 1012.9
20260507135007 8 360 0.0 6.4 0.00 0.00 0.00 66 1012.8
20260507134526 8 360 0.0 8.0 0.00 0.00 0.00 63 1012.9
20260507134008 8 360 4.8 9.7 0.00 0.00 0.00 65 1012.9
20260507133507 8 360 4.8 14.5 0.00 0.00 0.00 64 1012.8
20260507133008 8 360 8.0 14.5 0.00 0.00 0.00 64 1012.7
20260507132504 8 360 12.9 14.5 0.00 0.00 0.00 65 1012.6
20260507132007 8 360 9.7 16.1 0.00 0.00 0.00 65 1012.5
20260507131519 8 360 11.3 17.7 0.00 0.00 0.00 65 1012.4
20260507131038 8 360 11.3 17.7 0.00 0.00 0.00 66 1012.3
20260507130510 8 360 14.5 19.3 0.00 0.00 0.00 66 1012.3
20260507130030 8 360 14.5 20.9 0.00 0.00 0.00 67 1012.3
20260507125540 8 5 14.5 20.9 0.00 0.00 0.00 66 1012.3
20260507125008 8 20 11.3 19.3 0.00 0.00 0.00 68 1012.2
20260507124528 8 20 14.5 19.3 0.00 0.00 0.00 66 1012.2
20260507124034 8 32 12.9 17.7 0.00 0.00 0.00 67 1012.2
20260507123508 8 50 11.3 16.1 0.00 0.00 0.00 68 1012.1
20260507123026 7 50 8.0 16.1 0.00 0.00 0.00 67 1012.2
20260507122512 7 50 9.7 16.1 0.00 0.00 0.00 66 1012.2
20260507122013 7 57 8.0 14.5 0.00 0.00 0.00 66 1012.2
20260507121510 7 57 9.7 14.5 0.00 0.00 0.00 66 1012.1
20260507121008 7 57 9.7 16.1 0.00 0.00 0.00 65 1012.1
20260507120511 7 57 9.7 16.1 0.00 0.00 0.00 65 1012.1
20260507120020 7 58 9.7 14.5 0.00 0.00 0.00 67 1012.0
20260507115509 7 59 9.7 16.1 0.00 0.00 0.00 68 1011.9
20260507115009 7 59 9.7 16.1 0.00 0.00 0.00 66 1011.9
20260507114519 7 61 12.9 16.1 0.00 0.00 0.00 64 1012.0
20260507114014 7 63 9.7 14.5 0.00 0.00 0.00 66 1012.0
20260507113511 7 63 9.7 14.5 0.00 0.00 0.00 65 1011.9
20260507113025 7 63 9.7 16.1 0.00 0.00 0.00 64 1011.8
20260507112509 7 63 8.0 16.1 0.00 0.00 0.00 65 1011.8
20260507112008 7 63 8.0 16.1 0.00 0.00 0.00 65 1011.8
20260507111526 7 63 11.3 16.1 0.00 0.00 0.00 64 1011.8
20260507111010 7 63 9.7 16.1 0.00 0.00 0.00 64 1011.8
20260507110510 7 63 6.4 14.5 0.00 0.00 0.00 64 1011.5
20260507110026 7 63 4.8 14.5 0.00 0.00 0.00 64 1011.6
20260507105508 7 63 8.0 14.5 0.00 0.00 0.00 64 1011.7
20260507105006 7 63 6.4 12.9 0.00 0.00 0.00 62 1011.6
20260507104518 7 63 9.7 12.9 0.00 0.00 0.00 61 1011.6
20260507104010 7 63 6.4 9.7 0.00 0.00 0.00 65 1011.5
20260507103536 7 63 6.4 9.7 0.00 0.00 0.00 66 1011.5
20260507103029 7 63 4.8 9.7 0.00 0.00 0.00 70 1011.5
20260507102508 7 63 4.8 6.4 0.00 0.00 0.00 68 1011.5
20260507102009 6 63 3.2 9.7 0.00 0.00 0.00 66 1011.5
20260507101525 6 63 6.4 12.9 0.00 0.00 0.00 63 1011.6
20260507101008 6 63 8.0 12.9 0.00 0.00 0.00 65 1011.6
20260507100510 6 63 4.8 12.9 0.00 0.00 0.00 64 1011.7
20260507100032 6 63 9.7 12.9 0.00 0.00 0.00 65 1011.8
20260507095511 6 63 8.0 12.9 0.00 0.00 0.00 65 1011.7
20260507095011 6 63 8.0 12.9 0.00 0.00 0.00 70 1011.7
20260507094528 6 63 6.4 9.7 0.00 0.00 0.00 72 1011.7
20260507094010 5 63 4.8 9.7 0.00 0.00 0.00 73 1011.7
20260507093507 4 63 4.8 14.5 0.00 0.00 0.00 66 1011.7
20260507093018 4 63 8.0 14.5 0.00 0.00 0.00 67 1011.7
20260507092513 3 63 8.0 12.9 0.00 0.00 0.00 67 1011.8
20260507092008 3 63 8.0 12.9 0.00 0.00 0.00 66 1011.7
20260507091526 3 63 8.0 12.9 0.00 0.00 0.00 65 1011.8
20260507091011 4 63 8.0 12.9 0.00 0.00 0.00 63 1011.7
20260507090510 5 63 6.4 14.5 0.00 0.00 0.00 62 1011.7
20260507090026 5 63 11.3 14.5 0.00 0.00 0.00 62 1011.6
20260507085507 5 63 9.7 14.5 0.00 0.00 0.00 63 1011.7
20260507085025 5 63 11.3 16.1 0.00 0.00 0.00 62 1011.6
20260507084527 5 63 12.9 16.1 0.00 0.00 0.00 61 1011.7
20260507084013 5 63 11.3 16.1 0.00 0.00 0.00 60 1011.5
20260507083508 5 63 12.9 16.1 0.00 0.00 0.00 60 1011.5
20260507083028 5 63 11.3 14.5 0.00 0.00 0.00 60 1011.4
20260507082508 5 63 9.7 16.1 0.00 0.00 0.00 59 1011.4
20260507082010 5 63 11.3 19.3 0.00 0.00 0.00 59 1011.4
20260507081539 5 63 14.5 19.3 0.00 0.00 0.00 58 1011.4
20260507081008 5 66 11.3 16.1 0.00 0.00 0.00 58 1011.4
20260507080509 5 66 12.9 17.7 0.00 0.00 0.00 58 1011.2
20260507080005 5 66 14.5 17.7 0.00 0.00 0.00 57 1011.2
20260507075503 6 68 12.9 16.1 0.00 0.00 0.00 55 1011.1
20260507075004 6 68 12.9 14.5 0.00 0.00 0.00 54 1011.1
20260507074507 7 68 8.0 16.1 0.00 0.00 0.00 56 1011.0
20260507074009 7 68 11.3 16.1 0.00 0.00 0.00 54 1011.0
20260507073507 8 97 9.7 14.5 0.00 0.00 0.00 57 1010.8
20260507073013 8 97 8.0 14.5 0.00 0.00 0.00 59 1010.8
20260507072505 9 97 11.3 14.5 0.00 0.00 0.00 57 1010.7
20260507072008 8 97 0.0 3.2 0.00 0.00 0.00 57 1010.6
20260507071544 8 97 0.0 11.3 0.00 0.00 0.00 55 1010.5
20260507071008 8 97 3.2 11.3 0.00 0.00 0.00 50 1010.5
20260507070509 8 97 4.8 12.9 0.00 0.00 0.00 49 1010.6
20260507070022 8 97 9.7 12.9 0.00 0.00 0.00 49 1010.5
20260507065508 8 97 11.3 12.9 0.00 0.00 0.00 49 1010.4
20260507065010 8 97 9.7 12.9 0.00 0.00 0.00 50 1010.3
20260507064506 8 97 8.0 11.3 0.00 0.00 0.00 50 1010.2
20260507064008 8 97 6.4 14.5 0.00 0.00 0.00 51 1010.1
20260507063504 8 97 8.0 14.5 0.00 0.00 0.00 52 1010.0
20260507063008 8 97 11.3 14.5 0.00 0.00 0.00 52 1009.9
20260507062530 8 97 6.4 9.7 0.00 0.00 0.00 55 1009.8
20260507062005 8 97 6.4 9.7 0.00 0.00 0.00 56 1009.8
20260507061511 8 97 4.8 9.7 0.00 0.00 0.00 52 1009.8
20260507061007 8 97 4.8 9.7 0.00 0.00 0.00 50 1009.8
20260507060507 8 97 4.8 9.7 0.00 0.00 0.00 48 1009.8
20260507060016 8 97 4.8 9.7 0.00 0.00 0.00 48 1009.7
20260507055519 8 97 4.8 9.7 0.00 0.00 0.00 49 1009.5
20260507055012 9 97 3.2 9.7 0.00 0.00 0.00 55 1009.5
20260507054520 10 97 6.4 11.3 0.00 0.00 0.00 60 1009.4
20260507054012 10 97 6.4 14.5 0.00 0.00 0.00 61 1009.3
20260507053509 10 97 8.0 16.1 0.00 0.00 0.00 58 1009.2
20260507053026 10 97 12.9 20.9 0.00 0.00 0.00 54 1009.2
20260507052509 10 97 12.9 22.5 0.00 0.00 0.00 55 1009.2
20260507052007 11 97 14.5 22.5 0.00 0.00 0.00 54 1009.1
20260507051510 11 99 17.7 25.7 0.00 0.00 0.00 52 1009.0
20260507051003 11 92 19.3 27.4 0.00 0.00 0.00 52 1009.0
20260507050505 11 93 20.9 27.4 0.00 0.00 0.00 49 1009.1
20260507050019 11 86 19.3 25.7 0.00 0.00 0.00 48 1009.3
20260507045509 11 88 17.7 30.6 0.00 0.00 0.00 50 1009.2
20260507045048 11 85 22.5 30.6 0.00 0.00 0.00 50 1009.1
20260507044519 12 88 22.5 30.6 0.00 0.00 0.00 49 1009.0
20260507044009 12 91 22.5 30.6 0.00 0.00 0.00 48 1008.9
20260507043507 12 94 24.1 33.8 0.00 0.00 0.00 49 1008.7
20260507043026 12 93 25.7 37.0 0.00 0.00 0.00 47 1008.6
20260507042509 12 88 25.7 37.0 0.00 0.00 0.00 47 1008.7
20260507042007 12 83 25.7 37.0 0.00 0.00 0.00 46 1008.7
20260507041547 12 83 25.7 37.0 0.00 0.00 0.00 46 1008.6
20260507041010 12 86 29.0 35.4 0.00 0.00 0.00 45 1008.5
20260507040507 12 76 29.0 37.0 0.00 0.00 0.00 45 1008.5
20260507040054 13 76 29.0 37.0 0.00 0.00 0.00 45 1008.6
20260507035505 13 72 27.4 33.8 0.00 0.00 0.00 45 1008.5
20260507035005 13 75 24.1 32.2 0.00 0.00 0.00 46 1008.3
20260507034529 13 78 24.1 32.2 0.00 0.00 0.00 46 1008.0
20260507034006 13 76 24.1 30.6 0.00 0.00 0.00 45 1007.9
20260507033506 13 76 22.5 29.0 0.00 0.00 0.00 46 1007.9
20260507033033 14 74 20.9 25.7 0.00 0.00 0.00 44 1007.8
20260507032509 14 68 19.3 29.0 0.00 0.00 0.00 44 1007.8
20260507032010 15 68 20.9 29.0 0.00 0.00 0.00 42 1007.7
20260507031522 15 71 20.9 29.0 0.00 0.00 0.00 42 1007.6
20260507031008 15 73 24.1 29.0 0.00 0.00 0.00 44 1007.5
20260507030508 15 82 19.3 25.7 0.00 0.00 0.00 50 1007.3
20260507030053 15 88 17.7 20.9 0.00 0.00 0.00 48 1007.1
20260507025506 15 88 14.5 19.3 0.00 0.00 0.00 47 1007.0
20260507025005 15 88 16.1 20.9 0.00 0.00 0.00 52 1007.0
20260507024513 16 88 17.7 22.5 0.00 0.00 0.00 48 1006.7
20260507024006 16 88 17.7 24.1 0.00 0.00 0.00 47 1006.5
20260507023505 16 88 19.3 25.7 0.00 0.00 0.00 46 1006.5
20260507023024 16 87 20.9 25.7 0.00 0.00 0.00 46 1006.6
20260507022522 16 82 19.3 22.5 0.00 0.00 0.00 49 1006.6
20260507022009 16 82 17.7 22.5 0.00 0.00 0.00 49 1006.6
20260507021522 16 82 17.7 22.5 0.00 0.00 0.00 47 1006.5
20260507021010 16 82 17.7 22.5 0.00 0.00 0.00 44 1006.5
20260507020510 16 82 12.9 16.1 0.00 0.00 0.00 50 1006.5
20260507020026 17 82 9.7 19.3 0.00 0.00 0.00 46 1006.5
20260507015508 17 82 12.9 19.3 0.00 0.00 0.00 43 1006.4
20260507015017 17 82 14.5 19.3 0.00 0.00 0.00 43 1006.1
20260507014526 17 82 12.9 19.3 0.00 0.00 0.00 45 1006.1
20260507014011 17 82 14.5 22.5 0.00 0.00 0.00 43 1006.2
20260507013508 17 82 16.1 24.1 0.00 0.00 0.00 42 1006.2
20260507013013 17 82 17.7 25.7 0.00 0.00 0.00 41 1006.1
20260507012508 18 82 19.3 25.7 0.00 0.00 0.00 41 1006.1
20260507012008 17 82 17.7 24.1 0.00 0.00 0.00 43 1006.0
20260507011520 18 81 20.9 24.1 0.00 0.00 0.00 40 1006.1
20260507011007 18 78 20.9 27.4 0.00 0.00 0.00 41 1006.1
20260507010511 18 77 19.3 27.4 0.00 0.00 0.00 39 1006.0
20260507010026 18 77 22.5 29.0 0.00 0.00 0.00 34 1005.9
20260507005508 18 77 22.5 29.0 0.00 0.00 0.00 34 1005.8
20260507005015 19 76 20.9 27.4 0.00 0.00 0.00 37 1005.8
20260507004535 20 19 16.1 19.3 0.00 0.00 0.00 40 1006.0
20260507004010 20 19 6.4 8.0 0.00 0.00 0.00 34 1006.0
20260507003512 20 19 4.8 8.0 0.00 0.00 0.00 30 1006.1
20260507003025 20 19 4.8 8.0 0.00 0.00 0.00 32 1006.0
20260507002512 20 19 4.8 8.0 0.00 0.00 0.00 34 1006.0
20260507002017 20 19 6.4 8.0 0.00 0.00 0.00 35 1006.1
20260507001551 20 19 4.8 8.0 0.00 0.00 0.00 30 1006.2
20260507001008 20 19 6.4 8.0 0.00 0.00 0.00 41 1006.2
20260507000509 20 19 4.8 8.0 0.00 0.00 0.00 32 1006.1
20260507000022 20 19 4.8 8.0 0.00 0.00 0.00 31 1006.1
20260506235507 20 19 4.8 8.0 0.00 0.00 0.00 33 1006.1
20260506235008 20 19 6.4 11.3 0.00 0.00 0.00 31 1006.1
20260506234555 20 19 4.8 11.3 0.00 0.00 0.00 33 1006.2
20260506234011 20 19 6.4 14.5 0.00 0.00 0.00 29 1006.2
20260506233509 20 19 9.7 16.1 0.00 0.00 0.00 32 1006.2
20260506233028 20 19 11.3 16.1 0.00 0.00 0.00 42 1006.2
20260506232509 20 19 11.3 14.5 0.00 0.00 0.00 37 1006.2
20260506232009 20 19 8.0 12.9 0.00 0.00 0.00 36 1006.4
20260506231527 20 19 9.7 12.9 0.00 0.00 0.00 37 1006.5
20260506231008 20 19 11.3 14.5 0.00 0.00 0.00 41 1006.5
20260506230509 20 19 9.7 14.5 0.00 0.00 0.00 38 1006.6
20260506230028 19 19 12.9 14.5 0.00 0.00 0.00 47 1006.7
20260506225508 19 19 12.9 14.5 0.00 0.00 0.00 45 1006.8
20260506225008 19 19 11.3 14.5 0.00 0.00 0.00 43 1006.9
20260506224523 20 19 8.0 17.7 0.00 0.00 0.00 39 1006.9
20260506224011 20 19 11.3 17.7 0.00 0.00 0.00 38 1007.1
20260506223513 20 339 11.3 14.5 0.00 0.00 0.00 39 1007.2
20260506223026 20 338 4.8 12.9 0.00 0.00 0.00 39 1007.3
20260506222508 21 338 8.0 12.9 0.00 0.00 0.00 36 1007.3
20260506222015 21 331 9.7 12.9 0.00 0.00 0.00 31 1007.3
20260506221525 22 331 3.2 12.9 0.00 0.00 0.00 25 1007.4
20260506221014 23 331 1.6 17.7 0.00 0.00 0.00 23 1007.4
20260506220507 22 331 4.8 17.7 0.00 0.00 0.00 21 1007.5
20260506220034 22 330 9.7 17.7 0.00 0.00 0.00 21 1007.6
20260506215507 22 330 4.8 19.3 0.00 0.00 0.00 21 1007.7
20260506215012 22 327 14.5 19.3 0.00 0.00 0.00 22 1007.7
20260506214521 21 321 8.0 16.1 0.00 0.00 0.00 24 1007.7
20260506214009 21 321 9.7 16.1 0.00 0.00 0.00 23 1007.8